This is the latest recevied weather packets stored in our database for station/object EA7JCM-13. If no packets are shown the sender has not sent any weather packets the latest 10 day(s).
| Time | Temp. | Humidity | Pressure | Rain* | Wind** | Luminosity | Snow |
|---|---|---|---|---|---|---|---|
| 1777396503 | 13.89° C | 92% | 1006.6 hPa | 18.03 mm | - | - | - |
| 1777396203 | 13.89° C | 92% | 1006.8 hPa | 21.84 mm | - | - | - |
| 1777395902 | 13.89° C | 92% | 1006.7 hPa | 27.94 mm | - | - | - |
| 1777395603 | 13.33° C | 92% | 1006.9 hPa | 31.24 mm | - | - | - |
| 1777395303 | 13.33° C | 92% | 1006.7 hPa | 31.75 mm | - | - | - |
| 1777395004 | 13.33° C | 92% | 1007.1 hPa | 31.24 mm | - | - | - |
| 1777394703 | 13.33° C | 92% | 1007.3 hPa | 29.21 mm | - | - | - |
| 1777394403 | 12.78° C | 92% | 1007.5 hPa | 27.94 mm | - | - | - |
| 1777394105 | 12.78° C | 92% | 1007.7 hPa | 25.91 mm | - | - | - |
| 1777393804 | 12.78° C | 92% | 1007.7 hPa | 22.1 mm | - | - | - |
| 1777393503 | 12.78° C | 92% | 1007.7 hPa | 19.3 mm | - | - | - |
| 1777393203 | 13.89° C | 91% | 1007.6 hPa | 18.03 mm | - | - | - |
| 1777392904 | 14.44° C | 90% | 1007.5 hPa | 14.22 mm | - | - | - |
| 1777392604 | 14.44° C | 88% | 1007.2 hPa | 10.16 mm | - | - | - |
| 1777392303 | 14.44° C | 87% | 1006.9 hPa | 4.57 mm | - | - | - |
| 1777392003 | 16.11° C | 83% | 1006.6 hPa | 1.27 mm | - | - | - |
| 1777391704 | 17.22° C | 86% | 1006.6 hPa | 2.79 mm | - | - | - |
| 1777391403 | 17.22° C | 87% | 1006.2 hPa | 7.11 mm | - | - | - |
| 1777391103 | 16.67° C | 87% | 1006.3 hPa | 7.11 mm | - | - | - |
| 1777390803 | 17.22° C | 87% | 1006 hPa | 7.11 mm | - | - | - |
| 1777390503 | 17.22° C | 87% | 1006 hPa | 7.11 mm | - | - | - |
| 1777390203 | 17.22° C | 86% | 1006 hPa | 7.11 mm | - | - | - |
| 1777389903 | 17.22° C | 85% | 1006 hPa | 7.11 mm | - | - | - |
| 1777389603 | 16.67° C | 85% | 1006.4 hPa | 7.11 mm | - | - | - |
| 1777389303 | 17.22° C | 85% | 1006.1 hPa | 7.11 mm | - | - | - |
* Rain latest hour (hover to see other rain measurements)
** Current wind speed in m/s (hover to see current wind gust speed)